Location: Newark
(30.0333°N, 31.2167°E)
Time: 23:20:16
(UTC+00:00)

Explorer 11/Cluster Stage 4 - Visible Passes

Search period start: 26 January 2020 00:00
Search period end: 05 February 2020 00:00
Orbit: 467 x 1259 km, 28.8° (Epoch: 26 January)

Date Brightness Start Highest point End Pass type
(mag) Time Alt. Az. Time Alt. Az. Time Alt. Az.
26 Jan 8.7 17:12:41 10° W 17:17:48 24° SSW 17:21:54 11° SSE visible
27 Jan 9.0 17:01:58 10° W 17:06:56 21° SSW 17:11:14 10° SSE visible
28 Jan 9.1 16:51:19 10° WSW 16:56:03 19° SW 17:00:12 10° S visible
29 Jan 9.3 16:40:46 10° WSW 16:45:07 17° SW 16:49:04 10° S visible
30 Jan 9.5 16:30:19 10° WSW 16:34:12 15° SW 16:37:46 10° S visible
31 Jan 9.7 16:20:05 10° WSW 16:23:15 13° SW 16:26:14 10° S visible
01 Feb 10.0 16:10:18 10° SW 16:12:18 11° SW 16:14:14 10° SSW visible
